Showing default

SUPERVIEW NEO-2 04, 62080

Orbit data source: Space-Track

SUPERVIEW NEO-2 04, 62080 is a payload satellite owned by Siwei (CN) in SSO that was launched on Sun, 24 Nov 2024 UTC via a CHANG ZHENG 2C launch vehicle from the Jiuquan Satellite Launch Center, China (JSC). Payload-class satellites include a variety of spacecraft equipped with specific instruments for various scientific and technological missions. These include communications satellites like Starlink; space stations such as the ISS; scientific satellites like the Hubble; Earth observation satellites from companies like Planet Labs, Umbra, and HawkEye 360; GPS; miniature CubeSats for education and research; and military/defense satellites.

Loading next visibility...
Identifier
62080, 2024-218C
Orbit
SSO
Country
Flag of CNCN / PRC
Related business
Manufacturer
DFH
Mission
Operational Commercial Radar Imaging
Bus & Motor
SIWEI, Unknown motor
Mass
600 kg wet, ~500 kg dry
Launch date (UTC)
2024-11-24 (1 year ago)
Launch vehicle
CHANG ZHENG 2C
Launch site
Jiuquan Satellite Launch Center, China (JSC)
Object type
Payload
Rocket body
Debris
Shape & HBR
Box, 0.3 m
Radar Cross Section
0.375 m², Large (>1 m²)

Expand to show TLE details & history
Last TLE update: 14 hours ago

TLE from 14 hours ago
0 SUPERVIEW NEO-2 04
1 62080U 24218C   26093.51664469  .00000394  00000-0  21605-4 0  9998
2 62080  97.4394 101.9125 0001394 113.6536 246.4845 15.19719398 75104
Epoch: 2026-04-03T12:23Z
TLE epoch observation values (Epoch: 2026-04-03T12:23:58.101Z)
Latitude
-0.00004°
Longitude
84.07077°
Altitude
510.16 km
Speed
7.609 km/s
True Right ascension
06h 47m 39s
True Declination
0° 00' 00"
Sunlit
Object was in daylight at epoch
Visualization orbit readout
Latitude
Unknown
Longitude
Unknown
Altitude
Unknown
Speed
Unknown
Apparent Right ascension
Unknown
Apparent Declination
Unknown
Sunlit
N/A
Visualization observer readout
Local Sidereal Time
08:16:23
Azimuth
Unknown
Elevation
Unknown
Doppler factor
Unknown
Orbital elements
Apogee altitude
504.615 km
Perigee altitude
502.696 km
Semi-major axis
6,881.793 km
Eccentricity
0.00014
Inclination
97.4394°
RAAN
101.9125°
Arg. of periapsis
113.6536°
True anomaly
246.46985°
Mean anomaly
246.4845°
Eccentric anomaly
246.47718°
Mean motion
3.80181 °/min
Orbital period
94.69 mins
BSTAR
0.000021605
Loading maneuver chart data...
Computing Atmospheric mass density...
Loading historical data...
Loading historical data...
Loading historical data...
Loading historical data...
Loading historical data...
Loading historical data...
Loading historical data...
Other satellites on launch #218 in the year 2024 (2024-11-24 UTC)

Documentation

Showing up to 5 results
|